| time (UTC) | temp F | wind direction | speed knots | gust knots | rain 1hr in | rain 24hr in | rain mn in | humidity % | barometer mb |
| 20260509212731 | 67 | 229 | 5.2 | 7.8 | 0.00 | 0.00 | 0.16 | 58 | 1007.0 |
| 20260509212231 | 67 | 269 | 7.0 | 9.6 | 0.00 | 0.00 | 0.16 | 57 | 1008.0 |
| 20260509211732 | 67 | 281 | 5.2 | 8.7 | 0.00 | 0.00 | 0.16 | 57 | 1008.0 |
| 20260509211232 | 67 | 275 | 7.0 | 12.2 | 0.00 | 0.00 | 0.16 | 57 | 1007.0 |
| 20260509210732 | 67 | 255 | 3.5 | 7.8 | 0.00 | 0.00 | 0.16 | 57 | 1007.0 |
| 20260509210231 | 67 | 257 | 5.2 | 7.0 | 0.00 | 0.00 | 0.16 | 58 | 1008.0 |
| 20260509205732 | 67 | 273 | 7.8 | 10.4 | 0.00 | 0.00 | 0.16 | 58 | 1008.0 |
| 20260509205231 | 67 | 283 | 7.8 | 11.3 | 0.00 | 0.00 | 0.16 | 59 | 1008.0 |
| 20260509204732 | 67 | 279 | 7.0 | 9.6 | 0.00 | 0.00 | 0.16 | 58 | 1008.0 |
| 20260509204231 | 67 | 291 | 7.8 | 10.4 | 0.00 | 0.00 | 0.16 | 59 | 1008.0 |
| 20260509203733 | 66 | 242 | 5.2 | 8.7 | 0.00 | 0.00 | 0.16 | 59 | 1008.0 |
| 20260509203231 | 66 | 247 | 6.1 | 9.6 | 0.00 | 0.00 | 0.16 | 60 | 1008.0 |
| 20260509202734 | 66 | 241 | 6.1 | 9.6 | 0.00 | 0.00 | 0.16 | 60 | 1008.0 |
| 20260509202232 | 66 | 239 | 3.5 | 6.1 | 0.00 | 0.00 | 0.16 | 61 | 1008.0 |
| 20260509201731 | 66 | 214 | 6.1 | 9.6 | 0.00 | 0.00 | 0.16 | 61 | 1008.0 |
| 20260509201232 | 66 | 216 | 5.2 | 11.3 | 0.00 | 0.00 | 0.16 | 62 | 1008.0 |
| 20260509200733 | 66 | 288 | 4.3 | 7.0 | 0.00 | 0.00 | 0.16 | 59 | 1008.0 |
| 20260509200232 | 65 | 268 | 6.1 | 10.4 | 0.00 | 0.00 | 0.16 | 61 | 1008.0 |
| 20260509195731 | 66 | 246 | 5.2 | 7.8 | 0.00 | 0.00 | 0.16 | 59 | 1008.0 |
| 20260509195232 | 65 | 222 | 3.5 | 7.0 | 0.00 | 0.00 | 0.16 | 61 | 1008.0 |
| 20260509194733 | 65 | 260 | 7.0 | 10.4 | 0.00 | 0.00 | 0.16 | 61 | 1008.0 |
| 20260509194237 | 64 | 240 | 2.6 | 6.1 | 0.00 | 0.00 | 0.16 | 60 | 1008.0 |
| 20260509193732 | 64 | 255 | 7.0 | 10.4 | 0.00 | 0.00 | 0.16 | 61 | 1009.0 |
| 20260509193232 | 64 | 234 | 7.8 | 12.2 | 0.00 | 0.00 | 0.16 | 60 | 1009.0 |
| 20260509192733 | 64 | 212 | 6.1 | 9.6 | 0.00 | 0.00 | 0.16 | 60 | 1009.0 |
| 20260509192231 | 64 | 233 | 6.1 | 8.7 | 0.00 | 0.00 | 0.16 | 61 | 1009.0 |
| 20260509191732 | 64 | 243 | 7.0 | 11.3 | 0.00 | 0.00 | 0.16 | 62 | 1009.0 |
| 20260509191232 | 63 | 223 | 7.0 | 11.3 | 0.00 | 0.00 | 0.16 | 62 | 1009.0 |
| 20260509190731 | 63 | 235 | 7.0 | 10.4 | 0.00 | 0.00 | 0.16 | 61 | 1009.0 |
| 20260509190232 | 63 | 258 | 7.8 | 10.4 | 0.00 | 0.00 | 0.16 | 61 | 1009.0 |
| 20260509185731 | 63 | 221 | 3.5 | 7.0 | 0.00 | 0.00 | 0.16 | 63 | 1009.0 |
| 20260509185231 | 63 | 219 | 5.2 | 7.8 | 0.00 | 0.00 | 0.16 | 64 | 1009.0 |
| 20260509184731 | 62 | 216 | 7.0 | 9.6 | 0.00 | 0.00 | 0.16 | 65 | 1009.0 |
| 20260509184231 | 63 | 270 | 6.1 | 7.8 | 0.00 | 0.00 | 0.16 | 66 | 1009.0 |
| 20260509183731 | 63 | 249 | 8.7 | 11.3 | 0.00 | 0.00 | 0.16 | 65 | 1009.0 |
| 20260509183232 | 62 | 231 | 6.1 | 7.8 | 0.00 | 0.00 | 0.16 | 64 | 1009.0 |
| 20260509182731 | 62 | 276 | 7.8 | 10.4 | 0.00 | 0.00 | 0.16 | 66 | 1009.0 |
| 20260509182233 | 62 | 217 | 7.0 | 8.7 | 0.00 | 0.00 | 0.16 | 66 | 1009.0 |
| 20260509181733 | 62 | 268 | 6.1 | 7.8 | 0.00 | 0.00 | 0.16 | 67 | 1009.0 |
| 20260509181232 | 61 | 263 | 6.1 | 8.7 | 0.00 | 0.00 | 0.16 | 68 | 1010.0 |
| 20260509180734 | 61 | 277 | 5.2 | 7.8 | 0.00 | 0.00 | 0.16 | 68 | 1010.0 |
| 20260509180232 | 61 | 258 | 4.3 | 7.0 | 0.00 | 0.00 | 0.16 | 68 | 1010.0 |
| 20260509175734 | 60 | 270 | 3.5 | 7.0 | 0.00 | 0.00 | 0.16 | 71 | 1010.0 |
| 20260509175231 | 60 | 240 | 4.3 | 7.0 | 0.00 | 0.00 | 0.16 | 71 | 1010.0 |
| 20260509174732 | 60 | 254 | 4.3 | 7.0 | 0.00 | 0.00 | 0.16 | 71 | 1010.0 |
| 20260509174234 | 60 | 233 | 3.5 | 10.4 | 0.00 | 0.00 | 0.16 | 71 | 1010.0 |
| 20260509173731 | 60 | 276 | 6.1 | 7.8 | 0.00 | 0.00 | 0.16 | 71 | 1010.0 |
| 20260509173232 | 60 | 234 | 3.5 | 6.1 | 0.00 | 0.00 | 0.16 | 72 | 1010.0 |
| 20260509172731 | 60 | 227 | 7.8 | 9.6 | 0.00 | 0.00 | 0.16 | 72 | 1009.0 |
| 20260509172232 | 60 | 241 | 7.0 | 9.6 | 0.00 | 0.00 | 0.16 | 73 | 1009.0 |
| 20260509171732 | 60 | 239 | 2.6 | 5.2 | 0.00 | 0.00 | 0.16 | 74 | 1009.0 |
| 20260509171231 | 60 | 224 | 6.1 | 11.3 | 0.00 | 0.00 | 0.16 | 74 | 1009.0 |
| 20260509170731 | 59 | 258 | 4.3 | 7.0 | 0.00 | 0.00 | 0.16 | 76 | 1009.0 |
| 20260509170231 | 59 | 247 | 5.2 | 7.8 | 0.00 | 0.00 | 0.16 | 76 | 1009.0 |
| 20260509165733 | 60 | 229 | 5.2 | 10.4 | 0.00 | 0.00 | 0.16 | 74 | 1009.0 |
| 20260509165232 | 59 | 255 | 4.3 | 6.1 | 0.00 | 0.00 | 0.16 | 76 | 1009.0 |
| 20260509164732 | 59 | 254 | 7.8 | 11.3 | 0.00 | 0.00 | 0.16 | 77 | 1009.0 |
| 20260509164231 | 59 | 235 | 8.7 | 11.3 | 0.00 | 0.00 | 0.16 | 78 | 1009.0 |
| 20260509163731 | 59 | 257 | 3.5 | 6.1 | 0.00 | 0.00 | 0.16 | 77 | 1009.0 |
| 20260509163231 | 58 | 235 | 4.3 | 7.0 | 0.00 | 0.00 | 0.16 | 80 | 1009.0 |
| 20260509162731 | 58 | 252 | 2.6 | 5.2 | 0.00 | 0.00 | 0.16 | 81 | 1009.0 |
| 20260509162232 | 58 | 242 | 4.3 | 7.8 | 0.00 | 0.00 | 0.16 | 81 | 1009.0 |
| 20260509161733 | 57 | 271 | 5.2 | 8.7 | 0.00 | 0.00 | 0.16 | 82 | 1009.0 |
| 20260509161233 | 57 | 249 | 7.0 | 9.6 | 0.00 | 0.00 | 0.16 | 81 | 1010.0 |
| 20260509160732 | 57 | 269 | 6.1 | 10.4 | 0.00 | 0.00 | 0.16 | 83 | 1009.0 |
| 20260509160233 | 57 | 251 | 5.2 | 7.8 | 0.00 | 0.00 | 0.16 | 84 | 1009.0 |
| 20260509155731 | 56 | 251 | 5.2 | 7.8 | 0.00 | 0.00 | 0.16 | 86 | 1009.0 |
| 20260509155231 | 56 | 291 | 3.5 | 5.2 | 0.00 | 0.00 | 0.16 | 86 | 1009.0 |
| 20260509154731 | 55 | 215 | 2.6 | 3.5 | 0.00 | 0.00 | 0.16 | 88 | 1009.0 |
| 20260509154232 | 55 | 269 | 5.2 | 7.0 | 0.00 | 0.00 | 0.16 | 89 | 1009.0 |
| 20260509153731 | 55 | 201 | 2.6 | 4.3 | 0.00 | 0.00 | 0.16 | 89 | 1009.0 |
| 20260509153234 | 55 | 202 | 4.3 | 6.1 | 0.00 | 0.00 | 0.16 | 89 | 1009.0 |
| 20260509152732 | 55 | 200 | 5.2 | 7.0 | 0.00 | 0.00 | 0.16 | 90 | 1009.0 |
| 20260509152232 | 55 | 229 | 4.3 | 6.1 | 0.01 | 0.00 | 0.16 | 91 | 1009.0 |
| 20260509151733 | 55 | 210 | 3.5 | 3.5 | 0.01 | 0.00 | 0.15 | 90 | 1009.0 |
| 20260509151233 | 55 | 245 | 2.6 | 5.2 | 0.00 | 0.00 | 0.15 | 90 | 1009.0 |
| 20260509150731 | 55 | 202 | 3.5 | 6.1 | 0.00 | 0.00 | 0.15 | 90 | 1009.0 |
| 20260509150233 | 55 | 259 | 2.6 | 4.3 | 0.00 | 0.00 | 0.15 | 89 | 1009.0 |
| 20260509145732 | 55 | 220 | 3.5 | 7.0 | 0.00 | 0.00 | 0.15 | 90 | 1009.0 |
| 20260509145233 | 55 | 232 | 5.2 | 6.1 | 0.00 | 0.00 | 0.15 | 89 | 1009.0 |
| 20260509144731 | 55 | 249 | 3.5 | 4.3 | 0.00 | 0.00 | 0.15 | 91 | 1009.0 |
| 20260509144231 | 55 | 224 | 3.5 | 5.2 | 0.00 | 0.00 | 0.15 | 90 | 1009.0 |
| 20260509143731 | 55 | 250 | 3.5 | 5.2 | 0.00 | 0.00 | 0.15 | 90 | 1009.0 |
| 20260509143232 | 54 | 204 | 4.3 | 7.0 | 0.00 | 0.00 | 0.15 | 91 | 1009.0 |
| 20260509142737 | 54 | 216 | 3.5 | 4.3 | 0.00 | 0.00 | 0.15 | 91 | 1009.0 |
| 20260509142233 | 54 | 230 | 3.5 | 3.5 | 0.00 | 0.00 | 0.14 | 91 | 1009.0 |
| 20260509141731 | 54 | 216 | 2.6 | 4.3 | 0.00 | 0.00 | 0.14 | 91 | 1009.0 |
| 20260509141233 | 54 | 199 | 3.5 | 4.3 | 0.00 | 0.00 | 0.14 | 91 | 1009.0 |
| 20260509140733 | 54 | 210 | 5.2 | 7.8 | 0.00 | 0.00 | 0.14 | 91 | 1009.0 |
| 20260509140232 | 54 | 220 | 2.6 | 4.3 | 0.00 | 0.00 | 0.13 | 91 | 1009.0 |
| 20260509135732 | 54 | 201 | 3.5 | 4.3 | 0.00 | 0.00 | 0.13 | 92 | 1009.0 |
| 20260509135231 | 54 | 204 | 3.5 | 5.2 | 0.00 | 0.00 | 0.13 | 91 | 1009.0 |
| 20260509134731 | 54 | 210 | 3.5 | 5.2 | 0.00 | 0.00 | 0.13 | 92 | 1009.0 |
| 20260509134232 | 53 | 227 | 2.6 | 3.5 | 0.00 | 0.00 | 0.13 | 92 | 1009.0 |
| 20260509133731 | 53 | 209 | 3.5 | 5.2 | 0.00 | 0.00 | 0.13 | 93 | 1009.0 |
| 20260509133233 | 53 | 256 | 3.5 | 4.3 | 0.00 | 0.00 | 0.13 | 93 | 1009.0 |
| 20260509132732 | 53 | 193 | 3.5 | 5.2 | 0.00 | 0.00 | 0.13 | 92 | 1009.0 |
| 20260509132233 | 53 | 226 | 3.5 | 5.2 | 0.00 | 0.00 | 0.11 | 93 | 1009.0 |
| 20260509131731 | 53 | 245 | 4.3 | 6.1 | 0.00 | 0.00 | 0.10 | 94 | 1009.0 |
| 20260509131231 | 53 | 267 | 4.3 | 5.2 | 0.00 | 0.00 | 0.10 | 94 | 1010.0 |
| 20260509130733 | 53 | 242 | 1.7 | 4.3 | 0.02 | 0.00 | 0.10 | 94 | 1009.0 |
| 20260509130233 | 53 | 199 | 3.5 | 5.2 | 0.03 | 0.00 | 0.09 | 94 | 1009.0 |
| 20260509125733 | 53 | 217 | 1.7 | 3.5 | 0.08 | 0.00 | 0.09 | 94 | 1010.0 |
| 20260509125231 | 53 | 212 | 5.2 | 7.8 | 0.10 | 0.00 | 0.08 | 93 | 1009.0 |
| 20260509124733 | 53 | 190 | 4.3 | 6.1 | 0.07 | 0.00 | 0.07 | 93 | 1010.0 |
| 20260509124232 | 53 | 203 | 2.6 | 4.3 | 0.01 | 0.00 | 0.07 | 92 | 1010.0 |
| 20260509123732 | 53 | 233 | 3.5 | 5.2 | 0.04 | 0.00 | 0.06 | 92 | 1010.0 |
| 20260509123233 | 53 | 245 | 3.5 | 7.0 | 0.00 | 0.00 | 0.06 | 92 | 1010.0 |
| 20260509122731 | 53 | 194 | 5.2 | 7.8 | 0.00 | 0.00 | 0.05 | 92 | 1010.0 |
| 20260509122231 | 53 | 199 | 3.5 | 4.3 | 0.01 | 0.00 | 0.07 | 92 | 1010.0 |
| 20260509121733 | 53 | 265 | 0.9 | 2.6 | 0.01 | 0.00 | 0.06 | 92 | 1010.0 |
| 20260509121231 | 53 | 223 | 2.6 | 4.3 | 0.00 | 0.00 | 0.06 | 91 | 1010.0 |
| 20260509120733 | 53 | 233 | 2.6 | 4.3 | 0.00 | 0.00 | 0.06 | 91 | 1010.0 |
| 20260509120233 | 53 | 259 | 4.3 | 7.8 | 0.01 | 0.00 | 0.06 | 90 | 1010.0 |
| 20260509115734 | 53 | 230 | 1.7 | 4.3 | 0.01 | 0.00 | 0.05 | 90 | 1010.0 |
| 20260509115232 | 53 | 237 | 1.7 | 3.5 | 0.03 | 0.00 | 0.05 | 90 | 1010.0 |
| 20260509114732 | 53 | 222 | 4.3 | 7.0 | 0.02 | 0.00 | 0.05 | 90 | 1010.0 |
| 20260509114232 | 53 | 246 | 1.7 | 5.2 | 0.00 | 0.00 | 0.05 | 89 | 1010.0 |
| 20260509113734 | 53 | 221 | 4.3 | 5.2 | 0.00 | 0.00 | 0.05 | 89 | 1010.0 |
| 20260509113234 | 53 | 234 | 7.0 | 8.7 | 0.01 | 0.00 | 0.04 | 89 | 1010.0 |
| 20260509112732 | 53 | 241 | 4.3 | 6.1 | 0.02 | 0.00 | 0.04 | 89 | 1010.0 |
| 20260509112231 | 54 | 213 | 3.5 | 7.8 | 0.03 | 0.00 | 0.04 | 88 | 1010.0 |
| 20260509111732 | 54 | 239 | 3.5 | 5.2 | 0.04 | 0.00 | 0.03 | 88 | 1010.0 |
| 20260509111231 | 54 | 234 | 1.7 | 5.2 | 0.12 | 0.00 | 0.03 | 86 | 1010.0 |
| 20260509110732 | 54 | 238 | 6.1 | 9.6 | 0.04 | 0.00 | 0.02 | 84 | 1009.0 |
| 20260509110231 | 54 | 252 | 5.2 | 8.7 | 0.00 | 0.00 | 0.02 | 84 | 1009.0 |
| 20260509105731 | 54 | 261 | 4.3 | 7.0 | 0.00 | 0.00 | 0.02 | 83 | 1009.0 |
| 20260509105233 | 54 | 226 | 3.5 | 6.1 | 0.00 | 0.00 | 0.02 | 84 | 1009.0 |
| 20260509104732 | 54 | 221 | 2.6 | 4.3 | 0.00 | 0.00 | 0.02 | 84 | 1009.0 |
| 20260509104231 | 54 | 214 | 5.2 | 7.8 | 0.00 | 0.00 | 0.02 | 83 | 1009.0 |
| 20260509103734 | 54 | 199 | 3.5 | 6.1 | 0.00 | 0.00 | 0.02 | 84 | 1009.0 |
| 20260509103233 | 54 | 218 | 6.1 | 8.7 | 0.00 | 0.00 | 0.02 | 84 | 1009.0 |
| 20260509102733 | 54 | 220 | 2.6 | 7.8 | 0.00 | 0.00 | 0.02 | 84 | 1009.0 |
| 20260509102233 | 54 | 223 | 4.3 | 6.1 | 0.00 | 0.00 | 0.02 | 84 | 1009.0 |
| 20260509101732 | 54 | 233 | 1.7 | 6.1 | 0.00 | 0.00 | 0.02 | 84 | 1009.0 |
| 20260509101233 | 54 | 221 | 3.5 | 4.3 | 0.00 | 0.00 | 0.02 | 84 | 1009.0 |
| 20260509100733 | 54 | 225 | 3.5 | 6.1 | 0.00 | 0.00 | 0.02 | 84 | 1009.0 |
| 20260509100233 | 54 | 222 | 5.2 | 7.8 | 0.00 | 0.00 | 0.02 | 84 | 1009.0 |
| 20260509095732 | 54 | 199 | 5.2 | 7.0 | 0.00 | 0.00 | 0.02 | 84 | 1009.0 |
| 20260509095231 | 54 | 224 | 5.2 | 6.1 | 0.00 | 0.00 | 0.02 | 84 | 1009.0 |
| 20260509094731 | 53 | 255 | 0.9 | 2.6 | 0.00 | 0.00 | 0.01 | 86 | 1009.0 |
| 20260509094233 | 53 | 215 | 1.7 | 3.5 | 0.00 | 0.00 | 0.01 | 86 | 1009.0 |
| 20260509093732 | 52 | 284 | 4.3 | 6.1 | 0.01 | 0.00 | 0.01 | 89 | 1009.0 |
| 20260509093232 | 51 | 234 | 0.9 | 1.7 | 0.00 | 0.00 | 0.01 | 94 | 1009.0 |
| 20260509092732 | 51 | 301 | 1.7 | 1.7 | 0.00 | 0.00 | 0.01 | 95 | 1010.0 |
| 20260509092233 | 51 | 8 | 0.9 | 1.7 | 0.00 | 0.00 | 0.01 | 96 | 1010.0 |
| 20260509091732 | 51 | 318 | 0.9 | 1.7 | 0.01 | 0.00 | 0.00 | 96 | 1010.0 |
| 20260509091232 | 51 | 287 | 1.7 | 1.7 | 0.03 | 0.00 | 0.00 | 96 | 1010.0 |
| 20260509090732 | 51 | 0 | 0.0 | 0.0 | 0.01 | 0.00 | 0.00 | 96 | 1010.0 |
| 20260509090232 | 51 | 358 | 0.9 | 1.7 | 0.00 | 0.00 | 0.00 | 96 | 1010.0 |
| 20260509085732 | 51 | 107 | 0.0 | 1.7 | 0.02 | 0.00 | 0.00 | 96 | 1010.0 |
| 20260509085231 | 51 | 96 | 0.9 | 0.9 | 0.00 | 0.00 | 0.00 | 95 | 1010.0 |
| 20260509084731 | 51 | 188 | 0.0 | 0.9 | 0.00 | 0.00 | 0.00 | 95 | 1010.0 |
| 20260509084232 | 51 | 18 | 0.0 | 0.0 | 0.00 | 0.00 | 0.00 | 95 | 1010.0 |
| 20260509083733 | 51 | 38 | 0.0 | 0.0 | 0.00 | 0.00 | 0.00 | 95 | 1010.0 |
| 20260509083231 | 51 | 334 | 0.9 | 1.7 | 0.00 | 0.00 | 0.00 | 95 | 1010.0 |
| 20260509082732 | 51 | 0 | 0.0 | 0.0 | 0.00 | 0.00 | 0.00 | 95 | 1010.0 |
| 20260509082232 | 51 | 329 | 0.9 | 0.9 | 0.00 | 0.00 | 0.00 | 95 | 1010.0 |
| 20260509081734 | 51 | 7 | 0.0 | 0.0 | 0.00 | 0.00 | 0.00 | 95 | 1010.0 |
| 20260509081233 | 51 | 172 | 0.0 | 0.9 | 0.00 | 0.00 | 0.00 | 95 | 1010.0 |
| 20260509080732 | 51 | 149 | 0.0 | 0.0 | 0.00 | 0.00 | 0.00 | 95 | 1010.0 |
| 20260509080233 | 51 | 0 | 0.0 | 0.0 | 0.00 | 0.00 | 0.00 | 95 | 1010.0 |
| 20260509075731 | 51 | 0 | 0.0 | 0.0 | 0.00 | 0.00 | 0.00 | 95 | 1010.0 |
| 20260509075231 | 51 | 0 | 0.0 | 0.0 | 0.00 | 0.00 | 0.00 | 95 | 1010.0 |
| 20260509074731 | 51 | 79 | 0.9 | 1.7 | 0.00 | 0.00 | 0.00 | 95 | 1010.0 |
| 20260509074233 | 51 | 347 | 1.7 | 1.7 | 0.00 | 0.00 | 0.00 | 95 | 1010.0 |
| 20260509073731 | 51 | 31 | 1.7 | 1.7 | 0.00 | 0.00 | 0.00 | 95 | 1010.0 |
| 20260509073232 | 51 | 355 | 2.6 | 3.5 | 0.00 | 0.00 | 0.00 | 95 | 1010.0 |
| 20260509072732 | 51 | 22 | 2.6 | 2.6 | 0.00 | 0.00 | 0.00 | 95 | 1010.0 |
| 20260509072232 | 51 | 4 | 1.7 | 2.6 | 0.00 | 0.00 | 0.00 | 95 | 1010.0 |
| 20260509071733 | 51 | 13 | 2.6 | 3.5 | 0.00 | 0.00 | 0.00 | 94 | 1010.0 |
| 20260509071231 | 51 | 20 | 3.5 | 4.3 | 0.00 | 0.00 | 0.00 | 94 | 1010.0 |
| 20260509070732 | 51 | 14 | 3.5 | 4.3 | 0.00 | 0.00 | 0.00 | 93 | 1010.0 |
| 20260509070231 | 51 | 8 | 2.6 | 3.5 | 0.00 | 0.00 | 0.00 | 92 | 1010.0 |
| 20260509065731 | 51 | 1 | 1.7 | 1.7 | 0.00 | 0.00 | 0.00 | 92 | 1009.0 |
| 20260509065232 | 51 | 13 | 2.6 | 2.6 | 0.00 | 0.00 | 0.00 | 91 | 1010.0 |
| 20260509064731 | 51 | 49 | 1.7 | 2.6 | 0.00 | 0.00 | 0.00 | 91 | 1010.0 |
| 20260509064231 | 51 | 338 | 0.9 | 1.7 | 0.00 | 0.00 | 0.00 | 91 | 1010.0 |
| 20260509063732 | 51 | 83 | 2.6 | 3.5 | 0.00 | 0.00 | 0.00 | 90 | 1010.0 |
| 20260509063231 | 51 | 76 | 2.6 | 4.3 | 0.00 | 0.00 | 0.00 | 91 | 1010.0 |
| 20260509062734 | 51 | 199 | 0.0 | 1.7 | 0.00 | 0.00 | 0.00 | 92 | 1010.0 |
| 20260509062232 | 51 | 0 | 0.0 | 0.0 | 0.00 | 0.00 | 0.00 | 93 | 1010.0 |
| 20260509061731 | 51 | 288 | 0.0 | 0.9 | 0.00 | 0.00 | 0.00 | 92 | 1010.0 |
| 20260509061231 | 51 | 202 | 0.0 | 0.9 | 0.00 | 0.00 | 0.00 | 93 | 1010.0 |
| 20260509060731 | 51 | 129 | 0.9 | 0.9 | 0.00 | 0.00 | 0.00 | 93 | 1010.0 |
| 20260509060234 | 51 | 59 | 0.0 | 0.0 | 0.00 | 0.00 | 0.00 | 93 | 1010.0 |
| 20260509055731 | 51 | 0 | 1.7 | 1.7 | 0.00 | 0.00 | 0.00 | 93 | 1010.0 |
| 20260509055231 | 51 | 1 | 0.9 | 1.7 | 0.00 | 0.00 | 0.00 | 93 | 1010.0 |
| 20260509054732 | 51 | 34 | 1.7 | 1.7 | 0.00 | 0.00 | 0.00 | 93 | 1010.0 |
| 20260509054232 | 51 | 99 | 0.9 | 1.7 | 0.00 | 0.00 | 0.00 | 93 | 1010.0 |
| 20260509053739 | 51 | 50 | 2.6 | 3.5 | 0.00 | 0.00 | 0.00 | 93 | 1010.0 |
| 20260509053232 | 51 | 31 | 0.9 | 1.7 | 0.00 | 0.00 | 0.00 | 93 | 1011.0 |
| 20260509052732 | 51 | 53 | 1.7 | 2.6 | 0.00 | 0.00 | 0.00 | 92 | 1011.0 |
| 20260509052231 | 51 | 60 | 0.0 | 0.9 | 0.00 | 0.00 | 0.00 | 92 | 1011.0 |
| 20260509051731 | 51 | 46 | 2.6 | 2.6 | 0.00 | 0.00 | 0.00 | 92 | 1011.0 |
| 20260509051232 | 51 | 31 | 2.6 | 2.6 | 0.00 | 0.00 | 0.00 | 92 | 1011.0 |
| 20260509050731 | 51 | 56 | 2.6 | 3.5 | 0.00 | 0.00 | 0.00 | 93 | 1011.0 |
| 20260509050231 | 51 | 43 | 0.9 | 0.9 | 0.00 | 0.00 | 0.00 | 93 | 1011.0 |
| 20260509045733 | 51 | 38 | 2.6 | 3.5 | 0.00 | 0.00 | 0.00 | 93 | 1011.0 |
| 20260509045232 | 51 | 46 | 1.7 | 3.5 | 0.00 | 0.00 | 0.00 | 93 | 1011.0 |
| 20260509044732 | 51 | 56 | 3.5 | 4.3 | 0.00 | 0.00 | 0.00 | 93 | 1011.0 |
| 20260509044232 | 51 | 67 | 2.6 | 2.6 | 0.00 | 0.00 | 0.00 | 93 | 1011.0 |
| 20260509043731 | 51 | 68 | 1.7 | 2.6 | 0.00 | 0.00 | 0.00 | 93 | 1011.0 |
| 20260509043233 | 51 | 67 | 1.7 | 3.5 | 0.00 | 0.00 | 0.00 | 93 | 1011.0 |
| 20260509042732 | 51 | 23 | 2.6 | 3.5 | 0.00 | 0.00 | 0.00 | 94 | 1011.0 |
| 20260509042232 | 51 | 61 | 1.7 | 1.7 | 0.00 | 0.00 | 0.00 | 93 | 1011.0 |
| 20260509041732 | 51 | 20 | 1.7 | 2.6 | 0.00 | 0.00 | 0.00 | 93 | 1011.0 |
| 20260509041231 | 51 | 50 | 2.6 | 3.5 | 0.00 | 0.00 | 0.00 | 94 | 1011.0 |
| 20260509040732 | 52 | 58 | 3.5 | 3.5 | 0.00 | 0.00 | 0.00 | 93 | 1011.0 |
| 20260509040231 | 52 | 39 | 1.7 | 2.6 | 0.00 | 0.00 | 0.00 | 93 | 1011.0 |
| 20260509035731 | 52 | 37 | 2.6 | 3.5 | 0.00 | 0.00 | 0.05 | 92 | 1011.0 |
| 20260509035231 | 52 | 58 | 1.7 | 2.6 | 0.00 | 0.00 | 0.05 | 92 | 1011.0 |
| 20260509034731 | 52 | 50 | 1.7 | 2.6 | 0.00 | 0.00 | 0.05 | 91 | 1012.0 |
| 20260509034231 | 52 | 45 | 2.6 | 3.5 | 0.00 | 0.00 | 0.05 | 91 | 1012.0 |
| 20260509033732 | 52 | 47 | 3.5 | 3.5 | 0.00 | 0.00 | 0.05 | 91 | 1012.0 |
| 20260509033232 | 52 | 51 | 2.6 | 3.5 | 0.00 | 0.00 | 0.05 | 90 | 1012.0 |
| 20260509032732 | 52 | 31 | 1.7 | 1.7 | 0.00 | 0.00 | 0.05 | 91 | 1012.0 |
| 20260509032231 | 52 | 37 | 1.7 | 3.5 | 0.00 | 0.00 | 0.05 | 91 | 1012.0 |
| 20260509031732 | 52 | 48 | 1.7 | 2.6 | 0.00 | 0.00 | 0.05 | 90 | 1012.0 |
| 20260509031232 | 52 | 45 | 1.7 | 2.6 | 0.00 | 0.00 | 0.05 | 89 | 1012.0 |
| 20260509030732 | 52 | 53 | 2.6 | 2.6 | 0.00 | 0.00 | 0.05 | 90 | 1012.0 |
| 20260509030234 | 53 | 42 | 2.6 | 2.6 | 0.00 | 0.00 | 0.05 | 90 | 1012.0 |
| 20260509025732 | 53 | 0 | 0.0 | 0.0 | 0.01 | 0.00 | 0.05 | 90 | 1012.0 |
| 20260509025232 | 53 | 35 | 1.7 | 1.7 | 0.00 | 0.00 | 0.05 | 89 | 1012.0 |
| 20260509024731 | 53 | 39 | 1.7 | 1.7 | 0.00 | 0.00 | 0.05 | 89 | 1012.0 |
| 20260509024233 | 53 | 53 | 2.6 | 3.5 | 0.00 | 0.00 | 0.05 | 88 | 1012.0 |
| 20260509023732 | 53 | 79 | 0.9 | 1.7 | 0.04 | 0.00 | 0.05 | 89 | 1013.0 |
| 20260509023233 | 53 | 30 | 2.6 | 3.5 | 0.02 | 0.00 | 0.05 | 88 | 1013.0 |
| 20260509022732 | 53 | 33 | 2.6 | 3.5 | 0.02 | 0.00 | 0.05 | 87 | 1013.0 |
| 20260509022231 | 53 | 67 | 3.5 | 4.3 | 0.01 | 0.00 | 0.05 | 86 | 1013.0 |
| 20260509021731 | 54 | 15 | 2.6 | 2.6 | 0.01 | 0.00 | 0.05 | 86 | 1013.0 |
| 20260509021231 | 54 | 9 | 2.6 | 2.6 | 0.01 | 0.00 | 0.05 | 85 | 1013.0 |
| 20260509020732 | 54 | 76 | 3.5 | 5.2 | 0.00 | 0.00 | 0.05 | 85 | 1012.0 |
| 20260509020232 | 54 | 357 | 3.5 | 4.3 | 0.00 | 0.00 | 0.05 | 84 | 1012.0 |
| 20260509015732 | 54 | 66 | 1.7 | 1.7 | 0.00 | 0.00 | 0.05 | 84 | 1012.0 |
| 20260509015233 | 54 | 48 | 3.5 | 3.5 | 0.00 | 0.00 | 0.05 | 84 | 1012.0 |
| 20260509014732 | 54 | 69 | 1.7 | 2.6 | 0.00 | 0.00 | 0.05 | 84 | 1012.0 |
| 20260509014231 | 54 | 29 | 2.6 | 2.6 | 0.00 | 0.00 | 0.05 | 83 | 1012.0 |
| 20260509013732 | 54 | 56 | 0.0 | 0.0 | 0.00 | 0.00 | 0.05 | 83 | 1012.0 |
| 20260509013231 | 54 | 76 | 0.0 | 1.7 | 0.00 | 0.00 | 0.04 | 83 | 1012.0 |
| 20260509012731 | 54 | 60 | 1.7 | 2.6 | 0.00 | 0.00 | 0.04 | 82 | 1012.0 |
| 20260509012232 | 54 | 57 | 2.6 | 3.5 | 0.00 | 0.00 | 0.04 | 81 | 1012.0 |
| 20260509011732 | 55 | 347 | 0.9 | 0.9 | 0.04 | 0.00 | 0.04 | 81 | 1012.0 |
| 20260509011234 | 55 | 70 | 1.7 | 3.5 | 0.02 | 0.00 | 0.03 | 80 | 1011.0 |
| 20260509010732 | 55 | 62 | 3.5 | 5.2 | 0.03 | 0.00 | 0.03 | 79 | 1011.0 |
| 20260509010233 | 55 | 56 | 1.7 | 3.5 | 0.01 | 0.00 | 0.03 | 78 | 1012.0 |
| 20260509005731 | 55 | 50 | 2.6 | 4.3 | 0.00 | 0.00 | 0.03 | 77 | 1011.0 |
| 20260509005232 | 55 | 40 | 3.5 | 5.2 | 0.00 | 0.00 | 0.03 | 76 | 1011.0 |
| 20260509004732 | 56 | 37 | 3.5 | 4.3 | 0.00 | 0.00 | 0.03 | 76 | 1011.0 |
| 20260509004232 | 56 | 25 | 2.6 | 3.5 | 0.00 | 0.00 | 0.03 | 74 | 1011.0 |
| 20260509003731 | 56 | 55 | 1.7 | 4.3 | 0.00 | 0.00 | 0.03 | 73 | 1011.0 |
| 20260509003232 | 56 | 70 | 3.5 | 4.3 | 0.00 | 0.00 | 0.03 | 73 | 1011.0 |
| 20260509002732 | 56 | 28 | 2.6 | 3.5 | 0.00 | 0.00 | 0.03 | 72 | 1011.0 |
| 20260509002232 | 56 | 16 | 1.7 | 1.7 | 0.00 | 0.00 | 0.03 | 71 | 1011.0 |
| 20260509001731 | 56 | 41 | 0.9 | 1.7 | 0.00 | 0.00 | 0.03 | 71 | 1011.0 |
| 20260509001237 | 56 | 53 | 1.7 | 2.6 | 0.00 | 0.00 | 0.03 | 71 | 1011.0 |
| 20260509000731 | 56 | 49 | 0.9 | 2.6 | 0.00 | 0.00 | 0.03 | 71 | 1011.0 |
| 20260509000234 | 56 | 57 | 0.9 | 2.6 | 0.00 | 0.00 | 0.03 | 71 | 1011.0 |
| 20260508235731 | 56 | 70 | 0.0 | 1.7 | 0.00 | 0.00 | 0.03 | 71 | 1011.0 |
| 20260508235231 | 57 | 116 | 2.6 | 3.5 | 0.00 | 0.00 | 0.03 | 70 | 1011.0 |
| 20260508234732 | 57 | 107 | 2.6 | 3.5 | 0.00 | 0.00 | 0.03 | 70 | 1011.0 |
| 20260508234232 | 57 | 102 | 1.7 | 3.5 | 0.00 | 0.00 | 0.03 | 70 | 1011.0 |
| 20260508233731 | 57 | 110 | 0.9 | 2.6 | 0.00 | 0.00 | 0.03 | 70 | 1011.0 |
| 20260508233234 | 57 | 103 | 1.7 | 3.5 | 0.00 | 0.00 | 0.03 | 70 | 1011.0 |
| 20260508232731 | 57 | 76 | 1.7 | 2.6 | 0.00 | 0.00 | 0.03 | 70 | 1011.0 |
| 20260508232233 | 57 | 68 | 0.9 | 3.5 | 0.00 | 0.00 | 0.03 | 69 | 1011.0 |
| 20260508231732 | 57 | 97 | 0.0 | 1.7 | 0.00 | 0.00 | 0.03 | 69 | 1011.0 |
| 20260508231231 | 57 | 57 | 2.6 | 3.5 | 0.00 | 0.00 | 0.03 | 68 | 1011.0 |
| 20260508230732 | 57 | 18 | 0.9 | 1.7 | 0.00 | 0.00 | 0.03 | 68 | 1011.0 |
| 20260508230231 | 57 | 358 | 0.9 | 1.7 | 0.00 | 0.00 | 0.03 | 68 | 1011.0 |
| 20260508225241 | 57 | 64 | 3.5 | 4.3 | 0.00 | 0.00 | 0.03 | 68 | 1011.0 |
| 20260508224732 | 57 | 35 | 0.9 | 1.7 | 0.00 | 0.00 | 0.03 | 70 | 1011.0 |
| 20260508224232 | 57 | 9 | 1.7 | 2.6 | 0.00 | 0.00 | 0.03 | 69 | 1011.0 |
| 20260508223732 | 57 | 24 | 2.6 | 3.5 | 0.00 | 0.00 | 0.03 | 70 | 1011.0 |
| 20260508223232 | 57 | 14 | 2.6 | 4.3 | 0.00 | 0.00 | 0.03 | 71 | 1011.0 |
| 20260508222731 | 57 | 20 | 3.5 | 5.2 | 0.00 | 0.00 | 0.03 | 71 | 1011.0 |
| 20260508222232 | 58 | 17 | 3.5 | 5.2 | 0.00 | 0.00 | 0.03 | 68 | 1011.0 |
| 20260508221732 | 58 | 4 | 3.5 | 5.2 | 0.00 | 0.00 | 0.03 | 68 | 1011.0 |
| 20260508221233 | 58 | 345 | 0.9 | 1.7 | 0.00 | 0.00 | 0.03 | 67 | 1011.0 |
| 20260508220731 | 58 | 355 | 0.9 | 1.7 | 0.00 | 0.00 | 0.03 | 67 | 1011.0 |
| 20260508220231 | 58 | 340 | 0.9 | 1.7 | 0.00 | 0.00 | 0.03 | 66 | 1011.0 |
| 20260508215733 | 58 | 6 | 1.7 | 3.5 | 0.00 | 0.00 | 0.03 | 65 | 1011.0 |
| 20260508215233 | 59 | 344 | 0.9 | 2.6 | 0.00 | 0.00 | 0.03 | 62 | 1011.0 |
| 20260508214733 | 59 | 335 | 1.7 | 3.5 | 0.00 | 0.00 | 0.03 | 62 | 1011.0 |
| 20260508214231 | 59 | 224 | 0.0 | 2.6 | 0.00 | 0.00 | 0.03 | 61 | 1011.0 |
| 20260508213731 | 58 | 216 | 1.7 | 4.3 | 0.00 | 0.00 | 0.03 | 61 | 1011.0 |
| 20260508213233 | 58 | 237 | 2.6 | 7.8 | 0.00 | 0.00 | 0.03 | 61 | 1011.0 |